Time,TemperatureF,DewpointF,PressureIn,WindDirection,WindDirectionDegrees,WindSpeedMPH,WindSpeedGustMPH,Humidity,HourlyPrecipIn,Conditions,Clouds,dailyrainin,SoftwareType,DateUTC
2013-09-22 00:02:00,42.8,37.4,27.88,West,270,0.0,0.0,81,0.00,,---,0.00,VWS V14.01,2013-09-22 07:02:00,
2013-09-22 00:07:00,42.8,37.4,27.88,West,270,0.0,0.0,81,0.00,,---,0.00,VWS V14.01,2013-09-22 07:07:00,
2013-09-22 00:12:00,42.4,37.3,27.88,West,270,0.0,0.0,82,0.00,,---,0.00,VWS V14.01,2013-09-22 07:12:00,
2013-09-22 00:17:00,42.3,37.2,27.88,West,270,0.0,0.0,82,0.00,,---,0.00,VWS V14.01,2013-09-22 07:17:00,
2013-09-22 00:22:00,42.3,37.5,27.88,West,270,0.0,0.0,83,0.00,,---,0.00,VWS V14.01,2013-09-22 07:22:00,
2013-09-22 00:27:00,42.1,37.3,27.88,West,270,0.0,0.0,83,0.00,,---,0.00,VWS V14.01,2013-09-22 07:27:00,
2013-09-22 00:32:00,42.1,37.3,27.88,West,270,0.0,0.0,83,0.00,,---,0.00,VWS V14.01,2013-09-22 07:32:00,
2013-09-22 00:37:00,41.9,37.1,27.88,West,270,0.0,0.0,83,0.00,,---,0.00,VWS V14.01,2013-09-22 07:37:00,
2013-09-22 00:42:00,41.9,37.1,27.88,West,270,0.0,0.0,83,0.00,,---,0.00,VWS V14.01,2013-09-22 07:42:00,
2013-09-22 00:47:00,41.7,37.2,27.88,West,270,0.0,0.0,84,0.00,,---,0.00,VWS V14.01,2013-09-22 07:47:00,
2013-09-22 00:52:00,41.7,37.2,27.88,West,270,0.0,0.0,84,0.00,,---,0.00,VWS V14.01,2013-09-22 07:52:00,
2013-09-22 00:57:00,41.5,37.1,27.88,West,270,0.0,0.0,84,0.00,,---,0.00,VWS V14.01,2013-09-22 07:57:00,
2013-09-22 01:02:00,41.7,37.2,27.88,West,270,0.0,0.0,84,0.00,,---,0.00,VWS V14.01,2013-09-22 08:02:00,
2013-09-22 01:07:00,41.7,37.5,27.88,West,270,0.0,0.0,85,0.00,,---,0.00,VWS V14.01,2013-09-22 08:07:00,
2013-09-22 01:12:00,41.9,37.7,27.88,WNW,292,0.0,0.0,85,0.00,,---,0.00,VWS V14.01,2013-09-22 08:12:00,
2013-09-22 01:17:00,42.1,38.2,27.88,SSW,202,0.0,0.0,86,0.00,,---,0.00,VWS V14.01,2013-09-22 08:17:00,
2013-09-22 01:22:00,42.3,38.4,27.88,West,270,0.0,0.0,86,0.00,,---,0.00,VWS V14.01,2013-09-22 08:22:00,
2013-09-22 01:27:00,42.4,38.8,27.88,WNW,292,0.0,0.0,87,0.00,,---,0.00,VWS V14.01,2013-09-22 08:27:00,
2013-09-22 01:32:00,42.4,38.6,27.88,WNW,292,0.0,0.0,86,0.00,,---,0.00,VWS V14.01,2013-09-22 08:32:00,
2013-09-22 01:38:00,42.4,38.6,27.88,WNW,292,0.0,0.0,86,0.00,,---,0.00,VWS V14.01,2013-09-22 08:38:00,
2013-09-22 01:43:00,42.4,38.6,27.88,NW,315,0.0,0.0,86,0.00,,---,0.00,VWS V14.01,2013-09-22 08:43:00,
2013-09-22 01:48:00,42.4,38.6,27.88,NW,315,0.0,0.0,86,0.00,,---,0.00,VWS V14.01,2013-09-22 08:48:00,
2013-09-22 01:53:00,42.4,38.6,27.88,NW,315,0.0,0.0,86,0.00,,---,0.00,VWS V14.01,2013-09-22 08:53:00,
2013-09-22 01:58:00,42.4,38.6,27.88,NW,315,0.0,0.0,86,0.00,,---,0.00,VWS V14.01,2013-09-22 08:58:00,
2013-09-22 02:03:00,42.4,38.6,27.88,NW,315,0.0,0.0,86,0.00,,---,0.00,VWS V14.01,2013-09-22 09:03:00,
2013-09-22 02:08:00,42.4,38.6,27.88,NW,315,0.0,0.0,86,0.00,,---,0.00,VWS V14.01,2013-09-22 09:08:00,
2013-09-22 02:13:00,42.4,38.6,27.88,NW,315,0.0,0.0,86,0.00,,---,0.00,VWS V14.01,2013-09-22 09:13:00,
2013-09-22 02:18:00,42.6,38.7,27.88,NW,315,0.0,0.0,86,0.00,,---,0.00,VWS V14.01,2013-09-22 09:18:00,
2013-09-22 02:23:00,42.6,38.7,27.88,NW,315,0.0,0.0,86,0.00,,---,0.00,VWS V14.01,2013-09-22 09:23:00,
2013-09-22 02:28:00,42.8,38.9,27.88,NW,315,0.0,0.0,86,0.00,,---,0.00,VWS V14.01,2013-09-22 09:28:00,
2013-09-22 02:33:00,42.8,38.9,27.88,NW,315,0.0,0.0,86,0.00,,---,0.00,VWS V14.01,2013-09-22 09:33:00,
2013-09-22 02:38:00,43.0,39.1,27.88,NW,315,0.0,0.0,86,0.00,,---,0.00,VWS V14.01,2013-09-22 09:38:00,
2013-09-22 02:43:00,43.3,39.4,27.88,NW,315,0.0,0.0,86,0.00,,---,0.00,VWS V14.01,2013-09-22 09:43:00,
2013-09-22 02:48:00,43.3,39.4,27.88,WNW,292,0.0,0.0,86,0.00,,---,0.00,VWS V14.01,2013-09-22 09:48:00,
2013-09-22 02:53:00,43.5,39.6,27.88,WNW,292,0.0,0.0,86,0.00,,---,0.00,VWS V14.01,2013-09-22 09:53:00,
2013-09-22 02:58:00,43.5,39.6,27.85,West,270,0.0,0.0,86,0.00,,---,0.00,VWS V14.01,2013-09-22 09:58:00,
2013-09-22 03:03:00,43.3,39.4,27.85,West,270,0.0,0.0,86,0.00,,---,0.00,VWS V14.01,2013-09-22 10:03:00,
2013-09-22 03:08:00,43.3,39.4,27.85,West,270,0.0,0.0,86,0.00,,---,0.00,VWS V14.01,2013-09-22 10:08:00,
2013-09-22 03:13:00,43.3,39.4,27.85,West,270,0.0,0.0,86,0.00,,---,0.00,VWS V14.01,2013-09-22 10:13:00,
2013-09-22 03:18:00,43.3,39.4,27.85,West,270,0.0,0.0,86,0.00,,---,0.00,VWS V14.01,2013-09-22 10:18:00,
2013-09-22 03:23:00,43.0,39.1,27.85,West,270,0.0,0.0,86,0.00,,---,0.00,VWS V14.01,2013-09-22 10:23:00,
2013-09-22 03:28:00,42.8,38.9,27.85,West,270,0.0,0.0,86,0.00,,---,0.00,VWS V14.01,2013-09-22 10:28:00,
2013-09-22 03:33:00,42.6,39.0,27.85,West,270,0.0,0.0,87,0.00,,---,0.00,VWS V14.01,2013-09-22 10:33:00,
2013-09-22 03:38:00,42.6,38.7,27.85,SW,225,0.0,0.0,86,0.00,,---,0.00,VWS V14.01,2013-09-22 10:38:00,
2013-09-22 03:43:00,43.0,39.4,27.88,ENE,68,0.0,0.0,87,0.00,,---,0.00,VWS V14.01,2013-09-22 10:43:00,
2013-09-22 03:48:00,43.0,39.4,27.88,ENE,68,0.0,0.0,87,0.00,,---,0.00,VWS V14.01,2013-09-22 10:48:00,
2013-09-22 03:53:00,42.8,38.9,27.88,WSW,248,0.0,0.0,86,0.00,,---,0.00,VWS V14.01,2013-09-22 10:53:00,
2013-09-22 03:58:00,42.6,39.0,27.85,WSW,248,0.0,0.0,87,0.00,,---,0.00,VWS V14.01,2013-09-22 10:58:00,
2013-09-22 04:03:00,42.4,38.8,27.85,SSW,202,0.0,0.0,87,0.00,,---,0.00,VWS V14.01,2013-09-22 11:03:00,
2013-09-22 04:08:00,42.3,38.7,27.85,SSW,202,0.0,0.0,87,0.00,,---,0.00,VWS V14.01,2013-09-22 11:08:00,
2013-09-22 04:13:00,42.3,38.7,27.85,North,0,0.0,0.0,87,0.00,,---,0.00,VWS V14.01,2013-09-22 11:13:00,
2013-09-22 04:18:00,42.1,38.5,27.85,WSW,248,0.0,0.0,87,0.00,,---,0.00,VWS V14.01,2013-09-22 11:18:00,
2013-09-22 04:23:00,41.9,38.3,27.85,WSW,248,0.0,0.0,87,0.00,,---,0.00,VWS V14.01,2013-09-22 11:23:00,
2013-09-22 04:28:00,41.7,38.1,27.85,WSW,248,0.0,0.0,87,0.00,,---,0.00,VWS V14.01,2013-09-22 11:28:00,
2013-09-22 04:33:00,41.5,38.0,27.85,WSW,248,0.0,0.0,87,0.00,,---,0.00,VWS V14.01,2013-09-22 11:33:00,
2013-09-22 04:39:00,41.5,38.3,27.85,WSW,248,0.0,0.0,88,0.00,,---,0.00,VWS V14.01,2013-09-22 11:39:00,
2013-09-22 04:44:00,41.5,38.0,27.85,WSW,248,0.0,0.0,87,0.00,,---,0.00,VWS V14.01,2013-09-22 11:44:00,
2013-09-22 04:49:00,41.7,38.4,27.85,West,270,0.0,0.0,88,0.00,,---,0.00,VWS V14.01,2013-09-22 11:49:00,
2013-09-22 04:54:00,42.1,38.8,27.85,West,270,0.0,0.0,88,0.00,,---,0.00,VWS V14.01,2013-09-22 11:54:00,
2013-09-22 04:59:00,42.3,39.3,27.88,ENE,68,0.0,0.0,89,0.00,,---,0.00,VWS V14.01,2013-09-22 11:59:00,
2013-09-22 05:04:00,42.4,39.4,27.88,North,0,0.0,0.0,89,0.00,,---,0.00,VWS V14.01,2013-09-22 12:04:00,
2013-09-22 05:09:00,42.8,39.8,27.88,NNE,22,0.0,0.0,89,0.00,,---,0.00,VWS V14.01,2013-09-22 12:09:00,
2013-09-22 05:14:00,43.0,40.0,27.88,NNE,22,0.0,0.0,89,0.00,,---,0.00,VWS V14.01,2013-09-22 12:14:00,
2013-09-22 05:19:00,43.0,40.0,27.88,North,0,0.0,0.0,89,0.00,,---,0.00,VWS V14.01,2013-09-22 12:19:00,
2013-09-22 05:24:00,43.3,40.3,27.88,NNE,22,0.0,0.0,89,0.00,,---,0.00,VWS V14.01,2013-09-22 12:24:00,
2013-09-22 05:29:00,43.3,40.0,27.85,NNE,22,0.0,0.0,88,0.00,,---,0.00,VWS V14.01,2013-09-22 12:29:00,
2013-09-22 05:34:00,43.3,40.3,27.85,North,0,0.0,0.0,89,0.00,,---,0.00,VWS V14.01,2013-09-22 12:34:00,
2013-09-22 05:39:00,43.3,40.0,27.85,North,0,0.0,0.0,88,0.00,,---,0.00,VWS V14.01,2013-09-22 12:39:00,
2013-09-22 05:44:00,43.3,40.0,27.85,SSW,202,0.0,0.0,88,0.00,,---,0.00,VWS V14.01,2013-09-22 12:44:00,
2013-09-22 05:49:00,43.5,40.5,27.85,WNW,292,0.0,0.0,89,0.00,,---,0.00,VWS V14.01,2013-09-22 12:49:00,
2013-09-22 05:54:00,43.5,40.5,27.85,West,270,0.0,0.0,89,0.00,,---,0.00,VWS V14.01,2013-09-22 12:54:00,
2013-09-22 05:59:00,43.7,40.7,27.88,West,270,0.0,0.0,89,0.00,,---,0.00,VWS V14.01,2013-09-22 12:59:00,
2013-09-22 06:04:00,43.7,40.7,27.88,West,270,0.0,0.0,89,0.00,,---,0.00,VWS V14.01,2013-09-22 13:04:00,
2013-09-22 06:09:00,43.7,40.7,27.88,WNW,292,0.0,0.0,89,0.00,,---,0.00,VWS V14.01,2013-09-22 13:09:00,
2013-09-22 06:14:00,43.5,40.2,27.85,West,270,0.0,0.0,88,0.00,,---,0.00,VWS V14.01,2013-09-22 13:14:00,
2013-09-22 06:19:00,43.9,40.8,27.85,ENE,68,0.0,0.0,89,0.00,,---,0.00,VWS V14.01,2013-09-22 13:19:00,
2013-09-22 06:24:00,43.9,40.6,27.85,WNW,292,0.0,0.0,88,0.00,,---,0.00,VWS V14.01,2013-09-22 13:24:00,
2013-09-22 06:29:00,44.1,40.7,27.85,ENE,68,0.0,0.0,88,0.00,,---,0.00,VWS V14.01,2013-09-22 13:29:00,
2013-09-22 06:34:00,44.2,40.9,27.85,ENE,68,0.0,0.0,88,0.00,,---,0.00,VWS V14.01,2013-09-22 13:34:00,
2013-09-22 06:39:00,44.2,40.9,27.85,NNE,22,0.0,0.0,88,0.00,,---,0.00,VWS V14.01,2013-09-22 13:39:00,
2013-09-22 06:44:00,44.2,40.9,27.85,NNW,338,0.0,0.0,88,0.00,,---,0.00,VWS V14.01,2013-09-22 13:44:00,
2013-09-22 06:49:00,44.4,41.1,27.85,WSW,248,0.0,0.0,88,0.00,,---,0.00,VWS V14.01,2013-09-22 13:49:00,
2013-09-22 06:54:00,44.6,41.0,27.85,WSW,248,0.0,0.0,87,0.00,,---,0.00,VWS V14.01,2013-09-22 13:54:00,
2013-09-22 06:59:00,44.6,41.0,27.85,WNW,292,0.0,0.0,87,0.00,,---,0.00,VWS V14.01,2013-09-22 13:59:00,
2013-09-22 07:04:00,44.6,41.0,27.85,WNW,292,0.0,0.0,87,0.00,,---,0.00,VWS V14.01,2013-09-22 14:04:00,
2013-09-22 07:09:00,44.6,41.0,27.85,WNW,292,0.0,0.0,87,0.00,,---,0.00,VWS V14.01,2013-09-22 14:09:00,
2013-09-22 07:14:00,44.8,41.2,27.85,West,270,0.0,0.0,87,0.00,,---,0.00,VWS V14.01,2013-09-22 14:14:00,
2013-09-22 07:19:00,45.0,41.3,27.85,WSW,248,0.0,0.0,87,0.00,,---,0.00,VWS V14.01,2013-09-22 14:19:00,
2013-09-22 07:24:00,45.1,41.5,27.85,WNW,292,0.0,0.0,87,0.00,,---,0.00,VWS V14.01,2013-09-22 14:24:00,
2013-09-22 07:29:00,45.3,41.7,27.85,WSW,248,0.0,0.0,87,0.00,,---,0.00,VWS V14.01,2013-09-22 14:29:00,
2013-09-22 07:34:00,45.5,41.9,27.85,WSW,248,0.0,0.0,87,0.00,,---,0.00,VWS V14.01,2013-09-22 14:34:00,
2013-09-22 07:39:00,46.0,42.4,27.85,West,270,0.0,0.0,87,0.00,,---,0.00,VWS V14.01,2013-09-22 14:39:00,
2013-09-22 07:44:00,46.0,42.4,27.85,West,270,0.0,0.0,87,0.00,,---,0.00,VWS V14.01,2013-09-22 14:44:00,
2013-09-22 07:50:00,46.2,42.6,27.85,West,270,0.0,0.0,87,0.00,,---,0.00,VWS V14.01,2013-09-22 14:50:00,
2013-09-22 07:55:00,46.4,42.5,27.85,WSW,248,0.0,0.0,86,0.00,,---,0.00,VWS V14.01,2013-09-22 14:55:00,
2013-09-22 08:00:00,46.6,42.6,27.85,WSW,248,0.0,0.0,86,0.00,,---,0.00,VWS V14.01,2013-09-22 15:00:00,
2013-09-22 08:05:00,46.8,42.8,27.85,West,270,0.0,0.0,86,0.00,,---,0.00,VWS V14.01,2013-09-22 15:05:00,
2013-09-22 08:10:00,46.9,43.0,27.85,West,270,0.0,0.0,86,0.00,,---,0.00,VWS V14.01,2013-09-22 15:10:00,
2013-09-22 08:15:00,47.1,43.2,27.85,West,270,0.0,0.0,86,0.00,,---,0.00,VWS V14.01,2013-09-22 15:15:00,
2013-09-22 08:20:00,47.3,43.3,27.85,SSW,202,0.0,2.0,86,0.00,,---,0.00,VWS V14.01,2013-09-22 15:20:00,
2013-09-22 08:25:00,47.5,43.5,27.85,SSW,202,0.0,0.0,86,0.00,,---,0.00,VWS V14.01,2013-09-22 15:25:00,
2013-09-22 08:30:00,47.5,43.5,27.88,SW,225,0.0,0.0,86,0.00,,---,0.00,VWS V14.01,2013-09-22 15:30:00,
2013-09-22 08:35:00,47.7,43.7,27.88,SW,225,0.0,0.0,86,0.00,,---,0.00,VWS V14.01,2013-09-22 15:35:00,
2013-09-22 08:40:00,47.8,44.2,27.88,ESE,112,0.0,0.0,87,0.00,,---,0.00,VWS V14.01,2013-09-22 15:40:00,
2013-09-22 08:45:00,47.8,44.8,27.88,SW,225,0.0,0.0,89,0.00,,---,0.00,VWS V14.01,2013-09-22 15:45:00,
2013-09-22 08:50:00,48.2,45.1,27.88,WSW,248,0.0,0.0,89,0.00,,---,0.00,VWS V14.01,2013-09-22 15:50:00,
2013-09-22 08:55:00,48.6,45.5,27.88,East,90,0.0,0.0,89,0.00,,---,0.00,VWS V14.01,2013-09-22 15:55:00,
2013-09-22 09:00:00,48.6,45.5,27.88,SSW,202,0.0,0.0,89,0.00,,---,0.00,VWS V14.01,2013-09-22 16:00:00,
2013-09-22 09:05:00,48.7,45.3,27.88,SSW,202,0.0,0.0,88,0.00,,---,0.00,VWS V14.01,2013-09-22 16:05:00,
2013-09-22 09:10:00,48.7,45.3,27.88,North,0,0.0,0.0,88,0.00,,---,0.00,VWS V14.01,2013-09-22 16:10:00,
2013-09-22 09:15:00,48.9,45.5,27.88,WNW,292,0.0,0.0,88,0.00,,---,0.00,VWS V14.01,2013-09-22 16:15:00,
2013-09-22 09:20:00,49.1,45.7,27.88,West,270,0.0,0.0,88,0.00,,---,0.00,VWS V14.01,2013-09-22 16:20:00,
2013-09-22 09:25:00,49.3,45.9,27.88,West,270,0.0,0.0,88,0.00,,---,0.00,VWS V14.01,2013-09-22 16:25:00,
2013-09-22 09:30:00,49.5,45.8,27.88,West,270,0.0,0.0,87,0.00,,---,0.00,VWS V14.01,2013-09-22 16:30:00,
2013-09-22 09:35:00,49.8,46.4,27.88,West,270,0.0,0.0,88,0.00,,---,0.00,VWS V14.01,2013-09-22 16:35:00,
2013-09-22 09:40:00,50.4,46.6,27.88,West,270,0.0,0.0,87,0.00,,---,0.00,VWS V14.01,2013-09-22 16:40:00,
2013-09-22 09:45:00,50.9,47.5,27.88,West,270,0.0,0.0,88,0.00,,---,0.00,VWS V14.01,2013-09-22 16:45:00,
2013-09-22 09:50:00,52.0,48.5,27.88,West,270,0.0,0.0,88,0.00,,---,0.00,VWS V14.01,2013-09-22 16:50:00,
2013-09-22 09:55:00,52.7,49.2,27.88,NNW,338,0.0,0.0,88,0.00,,---,0.00,VWS V14.01,2013-09-22 16:55:00,
2013-09-22 10:00:00,53.4,49.7,27.88,NNE,22,0.9,0.9,87,0.00,,---,0.00,VWS V14.01,2013-09-22 17:00:00,
2013-09-22 10:05:00,53.6,49.2,27.88,WNW,292,0.0,1.6,85,0.00,,---,0.00,VWS V14.01,2013-09-22 17:05:00,
2013-09-22 10:10:00,54.0,48.3,27.88,NNE,22,1.1,1.1,81,0.00,,---,0.00,VWS V14.01,2013-09-22 17:10:00,
2013-09-22 10:15:00,54.3,48.3,27.88,WNW,292,0.0,0.0,80,0.00,,---,0.00,VWS V14.01,2013-09-22 17:15:00,
2013-09-22 10:20:00,54.3,47.6,27.88,WNW,292,0.0,0.0,78,0.00,,---,0.00,VWS V14.01,2013-09-22 17:20:00,
2013-09-22 10:25:00,54.7,46.2,27.88,WNW,292,0.0,0.0,73,0.00,,---,0.00,VWS V14.01,2013-09-22 17:25:00,
2013-09-22 10:30:00,55.0,46.9,27.90,WNW,292,0.0,0.0,74,0.00,,---,0.00,VWS V14.01,2013-09-22 17:30:00,
2013-09-22 10:35:00,55.4,46.2,27.90,NW,315,1.6,2.0,71,0.00,,---,0.00,VWS V14.01,2013-09-22 17:35:00,
2013-09-22 10:40:00,56.1,43.7,27.90,SSE,158,0.9,2.7,63,0.00,,---,0.00,VWS V14.01,2013-09-22 17:40:00,
2013-09-22 10:45:00,56.8,44.8,27.88,North,0,1.3,1.3,64,0.00,,---,0.00,VWS V14.01,2013-09-22 17:45:00,
2013-09-22 10:50:00,56.8,45.2,27.88,North,0,2.0,2.0,65,0.00,,---,0.00,VWS V14.01,2013-09-22 17:50:00,
2013-09-22 10:55:00,57.0,44.1,27.88,North,0,1.3,2.0,62,0.00,,---,0.00,VWS V14.01,2013-09-22 17:55:00,
2013-09-22 11:00:00,56.8,42.7,27.88,NNE,22,2.7,2.7,59,0.00,,---,0.00,VWS V14.01,2013-09-22 18:00:00,
2013-09-22 11:05:00,57.2,43.0,27.88,NNE,22,2.5,2.5,59,0.00,,---,0.00,VWS V14.01,2013-09-22 18:05:00,
2013-09-22 11:10:00,57.9,41.9,27.88,NNW,338,0.0,2.0,55,0.00,,---,0.00,VWS V14.01,2013-09-22 18:10:00,
2013-09-22 11:15:00,59.2,44.0,27.85,NNW,338,0.0,0.0,57,0.00,,---,0.00,VWS V14.01,2013-09-22 18:15:00,
2013-09-22 11:20:00,59.7,44.0,27.85,WNW,292,0.0,0.0,56,0.00,,---,0.00,VWS V14.01,2013-09-22 18:20:00,
2013-09-22 11:26:00,62.4,45.6,27.85,NNE,22,2.7,2.9,54,0.00,,---,0.00,VWS V14.01,2013-09-22 18:26:00,
2013-09-22 11:31:00,62.2,41.2,27.85,WNW,292,0.0,2.2,46,0.00,,---,0.00,VWS V14.01,2013-09-22 18:31:00,
2013-09-22 11:36:00,64.8,44.1,27.85,ENE,68,0.0,0.0,47,0.00,,---,0.00,VWS V14.01,2013-09-22 18:36:00,
2013-09-22 11:41:00,65.5,43.6,27.85,ENE,68,0.0,0.0,45,0.00,,---,0.00,VWS V14.01,2013-09-22 18:41:00,
2013-09-22 11:46:00,64.9,41.9,27.85,SE,135,2.0,2.0,43,0.00,,---,0.00,VWS V14.01,2013-09-22 18:46:00,
2013-09-22 11:51:00,65.5,43.0,27.85,SE,135,0.9,0.9,44,0.00,,---,0.00,VWS V14.01,2013-09-22 18:51:00,
2013-09-22 11:56:00,65.5,41.8,27.85,NNE,22,2.7,3.6,42,0.00,,---,0.00,VWS V14.01,2013-09-22 18:56:00,
2013-09-22 12:01:00,64.0,39.9,27.85,North,0,1.3,1.6,41,0.00,,---,0.00,VWS V14.01,2013-09-22 19:01:00,
2013-09-22 12:06:00,63.3,37.3,27.85,ENE,68,0.9,2.7,38,0.00,,---,0.00,VWS V14.01,2013-09-22 19:06:00,
2013-09-22 12:11:00,62.8,38.8,27.85,NW,315,0.0,1.1,41,0.00,,---,0.00,VWS V14.01,2013-09-22 19:11:00,
2013-09-22 12:16:00,62.6,39.2,27.85,NNW,338,2.0,2.5,42,0.00,,---,0.00,VWS V14.01,2013-09-22 19:16:00,
2013-09-22 12:21:00,62.2,39.5,27.85,NNW,338,0.0,1.6,43,0.00,,---,0.00,VWS V14.01,2013-09-22 19:21:00,
2013-09-22 12:26:00,61.9,39.8,27.85,North,0,1.6,1.6,44,0.00,,---,0.00,VWS V14.01,2013-09-22 19:26:00,
2013-09-22 12:31:00,61.7,39.0,27.85,NNE,22,0.0,1.3,43,0.00,,---,0.00,VWS V14.01,2013-09-22 19:31:00,
2013-09-22 12:36:00,61.3,39.3,27.85,NNE,22,2.9,2.9,44,0.00,,---,0.00,VWS V14.01,2013-09-22 19:36:00,
2013-09-22 12:41:00,61.9,40.3,27.85,NNE,22,1.6,1.6,45,0.00,,---,0.00,VWS V14.01,2013-09-22 19:41:00,
2013-09-22 12:46:00,62.1,40.5,27.82,North,0,2.5,2.5,45,0.00,,---,0.00,VWS V14.01,2013-09-22 19:46:00,
2013-09-22 12:51:00,62.4,40.8,27.82,West,270,1.6,1.6,45,0.00,,---,0.00,VWS V14.01,2013-09-22 19:51:00,
2013-09-22 12:56:00,62.6,39.8,27.82,NNE,22,1.3,2.0,43,0.00,,---,0.00,VWS V14.01,2013-09-22 19:56:00,
2013-09-22 13:01:00,62.1,40.5,27.85,NNW,338,0.0,2.9,45,0.00,,---,0.00,VWS V14.01,2013-09-22 20:01:00,
2013-09-22 13:07:00,61.5,40.0,27.85,NNE,22,0.9,1.3,45,0.00,,---,0.00,VWS V14.01,2013-09-22 20:07:00,
2013-09-22 13:12:00,61.3,39.8,27.85,North,0,2.0,2.0,45,0.00,,---,0.00,VWS V14.01,2013-09-22 20:12:00,
2013-09-22 13:17:00,61.7,40.7,27.82,NNW,338,0.0,0.0,46,0.00,,---,0.00,VWS V14.01,2013-09-22 20:17:00,
2013-09-22 13:22:00,61.9,39.8,27.82,NNW,338,1.3,2.9,44,0.00,,---,0.00,VWS V14.01,2013-09-22 20:22:00,
2013-09-22 13:27:00,61.5,39.4,27.82,NNW,338,1.6,2.2,44,0.00,,---,0.00,VWS V14.01,2013-09-22 20:27:00,
2013-09-22 13:32:00,61.9,40.3,27.82,NNW,338,1.1,2.2,45,0.00,,---,0.00,VWS V14.01,2013-09-22 20:32:00,
2013-09-22 13:37:00,61.9,40.3,27.82,NNE,22,2.7,2.7,45,0.00,,---,0.00,VWS V14.01,2013-09-22 20:37:00,
2013-09-22 13:42:00,61.2,39.7,27.82,NNW,338,2.0,4.0,45,0.00,,---,0.00,VWS V14.01,2013-09-22 20:42:00,
2013-09-22 13:47:00,60.6,39.8,27.82,North,0,2.7,3.4,46,0.00,,---,0.00,VWS V14.01,2013-09-22 20:47:00,
2013-09-22 13:52:00,60.1,40.9,27.82,NNE,22,5.6,5.6,49,0.00,,---,0.00,VWS V14.01,2013-09-22 20:52:00,
2013-09-22 13:57:00,59.5,40.9,27.82,NNW,338,2.5,2.5,50,0.00,,---,0.00,VWS V14.01,2013-09-22 20:57:00,
2013-09-22 14:02:00,58.8,41.7,27.82,NNW,338,3.4,4.5,53,0.00,,---,0.00,VWS V14.01,2013-09-22 21:02:00,
2013-09-22 14:07:00,58.1,41.6,27.82,North,0,1.1,2.0,54,0.00,,---,0.00,VWS V14.01,2013-09-22 21:07:00,
2013-09-22 14:12:00,57.6,42.9,27.82,North,0,2.2,2.7,58,0.00,,---,0.00,VWS V14.01,2013-09-22 21:12:00,
2013-09-22 14:17:00,56.8,43.5,27.85,NNW,338,2.0,3.1,61,0.00,,---,0.00,VWS V14.01,2013-09-22 21:17:00,
2013-09-22 14:22:00,55.6,43.6,27.85,NW,315,0.0,2.2,64,0.00,,---,0.00,VWS V14.01,2013-09-22 21:22:00,
2013-09-22 14:27:00,55.0,44.3,27.85,NNW,338,1.6,1.6,67,0.00,,---,0.00,VWS V14.01,2013-09-22 21:27:00,
2013-09-22 14:32:00,54.5,44.5,27.85,North,0,0.0,0.0,69,0.00,,---,0.00,VWS V14.01,2013-09-22 21:32:00,
2013-09-22 14:37:00,54.0,45.5,27.85,North,0,1.6,1.6,73,0.00,,---,0.00,VWS V14.01,2013-09-22 21:37:00,
2013-09-22 14:42:00,53.6,45.2,27.85,NNW,338,0.0,0.0,73,0.00,,---,0.00,VWS V14.01,2013-09-22 21:42:00,
2013-09-22 14:47:00,53.2,46.6,27.85,North,0,1.1,1.6,78,0.04,,---,0.04,VWS V14.01,2013-09-22 21:47:00,
2013-09-22 14:52:00,53.1,46.0,27.85,North,0,0.0,0.9,77,0.04,,---,0.04,VWS V14.01,2013-09-22 21:52:00,
2013-09-22 14:57:00,52.9,46.5,27.85,NNE,22,0.0,0.0,79,0.04,,---,0.04,VWS V14.01,2013-09-22 21:57:00,
2013-09-22 15:02:00,52.7,46.4,27.85,West,270,0.0,0.0,79,0.04,,---,0.04,VWS V14.01,2013-09-22 22:02:00,
2013-09-22 15:07:00,52.5,45.9,27.85,WNW,292,0.0,0.0,78,0.04,,---,0.04,VWS V14.01,2013-09-22 22:07:00,
2013-09-22 15:12:00,52.3,46.4,27.85,West,270,0.0,0.0,80,0.04,,---,0.04,VWS V14.01,2013-09-22 22:12:00,
2013-09-22 15:17:00,52.0,46.0,27.85,WNW,292,0.0,0.0,80,0.04,,---,0.04,VWS V14.01,2013-09-22 22:17:00,
2013-09-22 15:22:00,51.8,45.8,27.85,WNW,292,0.0,0.0,80,0.08,,---,0.08,VWS V14.01,2013-09-22 22:22:00,
2013-09-22 15:27:00,51.6,46.3,27.85,WNW,292,0.0,0.0,82,0.08,,---,0.08,VWS V14.01,2013-09-22 22:27:00,
2013-09-22 15:32:00,51.6,46.6,27.85,West,270,0.0,0.0,83,0.12,,---,0.12,VWS V14.01,2013-09-22 22:32:00,
2013-09-22 15:37:00,51.6,46.6,27.85,NNE,22,0.0,0.0,83,0.12,,---,0.12,VWS V14.01,2013-09-22 22:37:00,
2013-09-22 15:42:00,52.0,47.3,27.85,North,0,0.0,0.0,84,0.12,,---,0.12,VWS V14.01,2013-09-22 22:42:00,
2013-09-22 15:47:00,52.7,48.3,27.85,North,0,0.0,0.0,85,0.16,,---,0.16,VWS V14.01,2013-09-22 22:47:00,
2013-09-22 15:52:00,53.1,48.7,27.85,SSW,202,0.0,0.0,85,0.12,,---,0.16,VWS V14.01,2013-09-22 22:52:00,
2013-09-22 15:57:00,53.4,48.7,27.85,East,90,0.0,0.0,84,0.12,,---,0.16,VWS V14.01,2013-09-22 22:57:00,
2013-09-22 16:02:00,53.8,49.4,27.88,NNE,22,0.9,1.1,85,0.12,,---,0.16,VWS V14.01,2013-09-22 23:02:00,
2013-09-22 16:07:00,54.1,49.7,27.88,North,0,1.3,1.3,85,0.12,,---,0.16,VWS V14.01,2013-09-22 23:07:00,
2013-09-22 16:12:00,54.3,49.9,27.88,NNE,22,0.0,0.0,85,0.12,,---,0.16,VWS V14.01,2013-09-22 23:12:00,
2013-09-22 16:17:00,54.1,49.4,27.85,NNE,22,0.0,0.0,84,0.12,,---,0.16,VWS V14.01,2013-09-22 23:17:00,
2013-09-22 16:22:00,53.8,48.8,27.85,WNW,292,0.0,0.0,83,0.08,,---,0.16,VWS V14.01,2013-09-22 23:22:00,
2013-09-22 16:27:00,54.0,48.6,27.85,WNW,292,0.0,0.0,82,0.08,,---,0.16,VWS V14.01,2013-09-22 23:27:00,
2013-09-22 16:32:00,54.1,49.1,27.85,WNW,292,0.0,0.0,83,0.04,,---,0.16,VWS V14.01,2013-09-22 23:32:00,
2013-09-22 16:37:00,54.3,49.3,27.85,WNW,292,0.0,0.0,83,0.04,,---,0.16,VWS V14.01,2013-09-22 23:37:00,
2013-09-22 16:42:00,54.5,49.8,27.85,ENE,68,2.2,2.2,84,0.04,,---,0.16,VWS V14.01,2013-09-22 23:42:00,
2013-09-22 16:47:00,54.3,49.3,27.85,North,0,2.2,2.2,83,0.00,,---,0.16,VWS V14.01,2013-09-22 23:47:00,
2013-09-22 16:52:00,54.3,49.3,27.85,NE,45,0.0,0.0,83,0.00,,---,0.16,VWS V14.01,2013-09-22 23:52:00,
2013-09-22 16:57:00,54.1,49.1,27.85,NNE,22,0.0,0.0,83,0.00,,---,0.16,VWS V14.01,2013-09-22 23:57:00,
2013-09-22 17:02:00,54.0,48.9,27.85,NNE,22,0.0,0.0,83,0.00,,---,0.16,VWS V14.01,2013-09-23 00:02:00,
2013-09-22 17:07:00,53.8,48.4,27.85,NNE,22,0.0,0.0,82,0.00,,---,0.16,VWS V14.01,2013-09-23 00:07:00,
2013-09-22 17:13:00,53.6,48.6,27.85,East,90,0.0,0.0,83,0.00,,---,0.16,VWS V14.01,2013-09-23 00:13:00,
2013-09-22 17:18:00,53.6,48.6,27.85,North,0,0.0,0.0,83,0.00,,---,0.16,VWS V14.01,2013-09-23 00:18:00,
2013-09-22 17:23:00,53.6,48.6,27.85,WNW,292,0.0,0.0,83,0.00,,---,0.16,VWS V14.01,2013-09-23 00:23:00,
2013-09-22 17:28:00,53.6,48.6,27.85,WNW,292,0.0,0.0,83,0.00,,---,0.16,VWS V14.01,2013-09-23 00:28:00,
2013-09-22 17:33:00,53.6,48.6,27.85,WNW,292,0.0,0.0,83,0.00,,---,0.16,VWS V14.01,2013-09-23 00:33:00,
2013-09-22 17:38:00,53.2,48.5,27.85,WNW,292,0.0,0.0,84,0.00,,---,0.16,VWS V14.01,2013-09-23 00:38:00,
2013-09-22 17:43:00,52.9,48.2,27.85,WNW,292,0.0,0.0,84,0.00,,---,0.16,VWS V14.01,2013-09-23 00:43:00,
2013-09-22 17:48:00,52.7,48.0,27.85,WNW,292,0.0,0.0,84,0.00,,---,0.16,VWS V14.01,2013-09-23 00:48:00,
2013-09-22 17:53:00,52.5,47.8,27.85,WNW,292,0.0,0.0,84,0.00,,---,0.16,VWS V14.01,2013-09-23 00:53:00,
2013-09-22 17:58:00,52.3,48.0,27.85,WNW,292,0.0,0.0,85,0.00,,---,0.16,VWS V14.01,2013-09-23 00:58:00,
2013-09-22 18:03:00,52.0,47.6,27.85,WNW,292,0.0,0.0,85,0.00,,---,0.16,VWS V14.01,2013-09-23 01:03:00,
2013-09-22 18:08:00,51.6,47.3,27.85,WNW,292,0.0,0.0,85,0.00,,---,0.16,VWS V14.01,2013-09-23 01:08:00,
2013-09-22 18:13:00,51.3,46.9,27.85,WNW,292,0.0,0.0,85,0.00,,---,0.16,VWS V14.01,2013-09-23 01:13:00,
2013-09-22 18:18:00,51.3,46.9,27.85,WNW,292,0.0,0.0,85,0.00,,---,0.16,VWS V14.01,2013-09-23 01:18:00,
2013-09-22 18:23:00,51.1,47.0,27.85,WNW,292,0.0,0.0,86,0.00,,---,0.16,VWS V14.01,2013-09-23 01:23:00,
2013-09-22 18:28:00,50.9,46.9,27.85,WNW,292,0.0,0.0,86,0.00,,---,0.16,VWS V14.01,2013-09-23 01:28:00,
2013-09-22 18:33:00,50.9,47.2,27.85,WNW,292,0.0,0.0,87,0.00,,---,0.16,VWS V14.01,2013-09-23 01:33:00,
2013-09-22 18:38:00,50.7,47.0,27.85,WNW,292,0.0,0.0,87,0.00,,---,0.16,VWS V14.01,2013-09-23 01:38:00,
2013-09-22 18:43:00,50.5,46.8,27.85,WNW,292,0.0,0.0,87,0.00,,---,0.16,VWS V14.01,2013-09-23 01:43:00,
2013-09-22 18:48:00,50.5,46.8,27.85,WNW,292,0.0,0.0,87,0.00,,---,0.16,VWS V14.01,2013-09-23 01:48:00,
2013-09-22 18:53:00,50.4,46.6,27.85,WNW,292,0.0,0.0,87,0.00,,---,0.16,VWS V14.01,2013-09-23 01:53:00,
2013-09-22 18:58:00,50.0,46.6,27.85,WNW,292,0.0,0.0,88,0.00,,---,0.16,VWS V14.01,2013-09-23 01:58:00,
2013-09-22 19:03:00,49.6,46.2,27.85,WNW,292,0.0,0.0,88,0.00,,---,0.16,VWS V14.01,2013-09-23 02:03:00,
2013-09-22 19:08:00,49.5,46.1,27.85,WNW,292,0.0,0.0,88,0.00,,---,0.16,VWS V14.01,2013-09-23 02:08:00,
2013-09-22 19:13:00,48.9,45.5,27.85,WNW,292,0.0,0.0,88,0.00,,---,0.16,VWS V14.01,2013-09-23 02:13:00,
2013-09-22 19:18:00,48.7,45.3,27.85,WNW,292,0.0,0.0,88,0.00,,---,0.16,VWS V14.01,2013-09-23 02:18:00,
2013-09-22 19:23:00,48.4,45.0,27.85,WNW,292,0.0,0.0,88,0.00,,---,0.16,VWS V14.01,2013-09-23 02:23:00,
2013-09-22 19:28:00,48.0,44.9,27.85,WNW,292,0.0,0.0,89,0.00,,---,0.16,VWS V14.01,2013-09-23 02:28:00,
2013-09-22 19:33:00,47.7,44.6,27.85,WNW,292,0.0,0.0,89,0.00,,---,0.16,VWS V14.01,2013-09-23 02:33:00,
2013-09-22 19:38:00,47.5,44.4,27.85,WNW,292,0.0,0.0,89,0.00,,---,0.16,VWS V14.01,2013-09-23 02:38:00,
2013-09-22 19:43:00,47.3,44.2,27.85,WNW,292,0.0,0.0,89,0.00,,---,0.16,VWS V14.01,2013-09-23 02:43:00,
2013-09-22 19:49:00,47.1,44.0,27.85,WNW,292,0.0,0.0,89,0.00,,---,0.16,VWS V14.01,2013-09-23 02:49:00,
2013-09-22 19:54:00,47.1,44.3,27.85,WNW,292,0.0,0.0,90,0.00,,---,0.16,VWS V14.01,2013-09-23 02:54:00,
2013-09-22 19:59:00,47.1,44.6,27.85,WNW,292,0.0,0.0,91,0.00,,---,0.16,VWS V14.01,2013-09-23 02:59:00,
2013-09-22 20:04:00,47.1,44.6,27.85,WNW,292,0.0,0.0,91,0.00,,---,0.16,VWS V14.01,2013-09-23 03:04:00,
2013-09-22 20:09:00,46.9,44.5,27.85,WNW,292,0.0,0.0,91,0.00,,---,0.16,VWS V14.01,2013-09-23 03:09:00,
2013-09-22 20:14:00,46.9,44.5,27.88,WNW,292,0.0,0.0,91,0.00,,---,0.16,VWS V14.01,2013-09-23 03:14:00,
2013-09-22 20:19:00,46.9,44.7,27.88,WSW,248,0.9,0.9,92,0.00,,---,0.16,VWS V14.01,2013-09-23 03:19:00,
2013-09-22 20:24:00,46.8,44.6,27.88,WSW,248,0.0,0.0,92,0.00,,---,0.16,VWS V14.01,2013-09-23 03:24:00,
2013-09-22 20:29:00,46.6,44.4,27.88,WSW,248,0.0,0.0,92,0.00,,---,0.16,VWS V14.01,2013-09-23 03:29:00,
2013-09-22 20:34:00,46.6,44.4,27.88,WSW,248,0.0,0.0,92,0.00,,---,0.16,VWS V14.01,2013-09-23 03:34:00,
2013-09-22 20:39:00,46.4,44.2,27.88,WSW,248,1.6,1.6,92,0.00,,---,0.16,VWS V14.01,2013-09-23 03:39:00,
2013-09-22 20:44:00,46.4,44.2,27.88,WSW,248,0.0,0.0,92,0.00,,---,0.16,VWS V14.01,2013-09-23 03:44:00,
2013-09-22 20:49:00,46.4,44.5,27.88,WSW,248,0.0,0.0,93,0.00,,---,0.16,VWS V14.01,2013-09-23 03:49:00,
2013-09-22 20:54:00,46.2,44.3,27.88,WSW,248,0.0,0.0,93,0.00,,---,0.16,VWS V14.01,2013-09-23 03:54:00,
2013-09-22 20:59:00,46.0,44.1,27.88,WSW,248,0.0,0.0,93,0.00,,---,0.16,VWS V14.01,2013-09-23 03:59:00,
2013-09-22 21:01:00,46.0,44.1,27.88,WSW,248,0.0,0.0,93,0.00,,---,0.16,VWS V14.01,2013-09-23 04:01:00,
2013-09-22 21:03:00,46.0,44.1,27.88,WSW,248,0.0,0.0,93,0.00,,---,0.16,VWS V14.01,2013-09-23 04:03:00,
2013-09-22 21:08:00,46.2,44.3,27.88,WSW,248,1.6,1.6,93,0.00,,---,0.16,VWS V14.01,2013-09-23 04:08:00,
2013-09-22 21:13:00,46.2,44.3,27.88,WSW,248,0.0,0.0,93,0.00,,---,0.16,VWS V14.01,2013-09-23 04:13:00,
2013-09-22 21:18:00,46.2,44.6,27.88,WSW,248,0.0,0.0,94,0.00,,---,0.16,VWS V14.01,2013-09-23 04:18:00,
2013-09-22 21:23:00,46.4,44.8,27.88,NW,315,0.0,0.0,94,0.00,,---,0.16,VWS V14.01,2013-09-23 04:23:00,
2013-09-22 21:28:00,46.4,44.8,27.88,WNW,292,0.0,0.0,94,0.00,,---,0.16,VWS V14.01,2013-09-23 04:28:00,
2013-09-22 21:33:00,46.4,44.8,27.88,WNW,292,0.0,0.0,94,0.00,,---,0.16,VWS V14.01,2013-09-23 04:33:00,
2013-09-22 21:38:00,46.4,44.8,27.88,WNW,292,0.0,0.0,94,0.00,,---,0.16,VWS V14.01,2013-09-23 04:38:00,
2013-09-22 21:43:00,46.4,44.8,27.90,WNW,292,0.0,0.0,94,0.00,,---,0.16,VWS V14.01,2013-09-23 04:43:00,
2013-09-22 21:48:00,46.2,44.6,27.90,WNW,292,0.0,0.0,94,0.00,,---,0.16,VWS V14.01,2013-09-23 04:48:00,
2013-09-22 21:53:00,46.0,44.4,27.90,WNW,292,0.0,0.0,94,0.00,,---,0.16,VWS V14.01,2013-09-23 04:53:00,
2013-09-22 21:58:00,46.0,44.4,27.88,WNW,292,0.0,0.0,94,0.00,,---,0.16,VWS V14.01,2013-09-23 04:58:00,
2013-09-22 22:03:00,45.9,44.2,27.88,WNW,292,0.0,0.0,94,0.00,,---,0.16,VWS V14.01,2013-09-23 05:03:00,
2013-09-22 22:08:00,45.9,44.2,27.88,WNW,292,0.0,0.0,94,0.00,,---,0.16,VWS V14.01,2013-09-23 05:08:00,
2013-09-22 22:13:00,45.9,44.2,27.88,WNW,292,0.0,0.0,94,0.00,,---,0.16,VWS V14.01,2013-09-23 05:13:00,
2013-09-22 22:18:00,45.7,44.1,27.90,WNW,292,0.0,0.0,94,0.00,,---,0.16,VWS V14.01,2013-09-23 05:18:00,
2013-09-22 22:23:00,45.7,44.1,27.90,WNW,292,0.0,0.0,94,0.00,,---,0.16,VWS V14.01,2013-09-23 05:23:00,
2013-09-22 22:28:00,45.5,43.9,27.90,WNW,292,0.0,0.0,94,0.00,,---,0.16,VWS V14.01,2013-09-23 05:28:00,
2013-09-22 22:34:00,45.5,43.9,27.90,East,90,0.0,0.0,94,0.00,,---,0.16,VWS V14.01,2013-09-23 05:34:00,
2013-09-22 22:39:00,45.5,43.9,27.90,East,90,0.0,0.0,94,0.00,,---,0.16,VWS V14.01,2013-09-23 05:39:00,
2013-09-22 22:44:00,45.3,43.7,27.90,NE,45,0.0,0.0,94,0.00,,---,0.16,VWS V14.01,2013-09-23 05:44:00,
2013-09-22 22:49:00,45.3,43.7,27.90,WNW,292,0.0,0.0,94,0.00,,---,0.16,VWS V14.01,2013-09-23 05:49:00,
2013-09-22 22:54:00,45.3,44.0,27.90,WSW,248,0.0,0.0,95,0.00,,---,0.16,VWS V14.01,2013-09-23 05:54:00,
2013-09-22 22:59:00,45.3,44.0,27.90,WSW,248,0.0,0.0,95,0.00,,---,0.16,VWS V14.01,2013-09-23 05:59:00,
2013-09-22 23:04:00,45.3,44.0,27.90,WSW,248,0.0,0.0,95,0.00,,---,0.16,VWS V14.01,2013-09-23 06:04:00,
2013-09-22 23:09:00,45.1,43.8,27.90,WSW,248,0.0,0.0,95,0.00,,---,0.16,VWS V14.01,2013-09-23 06:09:00,
2013-09-22 23:14:00,45.0,43.6,27.90,WSW,248,0.0,0.0,95,0.00,,---,0.16,VWS V14.01,2013-09-23 06:14:00,
2013-09-22 23:19:00,45.3,44.0,27.90,WSW,248,0.0,0.0,95,0.00,,---,0.16,VWS V14.01,2013-09-23 06:19:00,
2013-09-22 23:24:00,45.3,44.0,27.90,WSW,248,0.0,0.0,95,0.00,,---,0.16,VWS V14.01,2013-09-23 06:24:00,
2013-09-22 23:29:00,45.0,43.6,27.90,WSW,248,0.0,0.0,95,0.00,,---,0.16,VWS V14.01,2013-09-23 06:29:00,
2013-09-22 23:34:00,44.6,43.3,27.90,WSW,248,0.0,0.0,95,0.00,,---,0.16,VWS V14.01,2013-09-23 06:34:00,
2013-09-22 23:39:00,44.4,43.1,27.90,WSW,248,0.0,0.0,95,0.00,,---,0.16,VWS V14.01,2013-09-23 06:39:00,
2013-09-22 23:44:00,44.2,42.9,27.90,WSW,248,0.0,0.0,95,0.00,,---,0.16,VWS V14.01,2013-09-23 06:44:00,
2013-09-22 23:49:00,44.1,42.7,27.90,WSW,248,0.0,0.0,95,0.00,,---,0.16,VWS V14.01,2013-09-23 06:49:00,
2013-09-22 23:54:00,43.9,42.5,27.90,WSW,248,0.0,0.0,95,0.00,,---,0.16,VWS V14.01,2013-09-23 06:54:00,
2013-09-22 23:59:00,43.7,42.4,27.90,WSW,248,0.0,0.0,95,0.00,,---,0.16,VWS V14.01,2013-09-23 06:59:00,